Lancaster, OH

12:05 PM EDT on May 27, 2017 (GMT -0400)
Fairfield County

Weather History for KLHQ - November, 2011

Change the Weather History Date:

Thursday, November 10, 2011

  Actual Average Record
Temperature  
Mean Temperature 40 °F -  
Max Temperature 48 °F 54 °F 76 °F (1975)
Min Temperature 30 °F 34 °F 16 °F (1991)
Degree Days  
Heating Degree Days 24    
Moisture  
Dew Point 30 °F    
Average Humidity 68    
Maximum Humidity 86    
Minimum Humidity 42    
Precipitation  
Precipitation 0.00 in - - ()
Sea Level Pressure  
Sea Level Pressure 30.02 in    
Wind  
Wind Speed 9 mph (West)    
Max Wind Speed 17 mph    
Max Gust Speed 24 mph    
Visibility 10 miles    
Events Snow    
Averages and records for this station are not official NWS values.
T = Trace of Precipitation, MM = Missing Value Source: NWS Daily Summary

Daily Weather History Graph

Daily Weather History Graph

Search for Another Location

Airport or City:

Trip Planner

Search our weather history database for the weather conditions in past years. The results will help you decide how hot, cold, wet, or windy it might be!

Date:

Astronomy

Nov. 10, 2011 Rise Set
Actual Time 7:09 AM EST 5:19 PM EST
Civil Twilight 6:40 AM EST 5:47 PM EST
Nautical Twilight 6:08 AM EST 6:20 PM EST
Astronomical Twilight 5:36 AM EST 6:51 PM EST
Moon 5:06 PM EST (11/10) 7:00 AM EST (11/10)
Length of Visible Light 11h 07m
Length of Day
10h 10m
Full, 100% of the Moon is Illuminated
Nov 10
Full
Nov 10
Full
Nov 18
Last Quarter
Nov 25
New
Dec 2
First Quarter

Hourly Weather History & Observations

Time (EST) Temp. Windchill Dew Point Humidity Pressure Visibility Wind Dir Wind Speed Gust Speed Precip Events Conditions
12:02 AM 44.6 °F 40.2 °F 33.8 °F 66% 30.04 in 10.0 mi West 8.1 mph 17.3 mph N/A   Overcast
12:53 AM 43.0 °F 38.2 °F 33.1 °F 68% 30.04 in 10.0 mi West 8.1 mph - N/A   Overcast
1:01 AM 42.8 °F 37.5 °F 33.8 °F 70% 30.04 in 10.0 mi WNW 9.2 mph - N/A   Overcast
1:53 AM 41.0 °F 34.7 °F 32.0 °F 70% 30.05 in 10.0 mi West 10.4 mph - N/A   Mostly Cloudy
2:37 AM 39.2 °F 33.0 °F 33.8 °F 81% 30.06 in 10.0 mi WNW 9.2 mph - N/A   Overcast
2:53 AM 39.0 °F 33.4 °F 34.0 °F 82% 30.06 in 10.0 mi West 8.1 mph - N/A   Overcast
3:06 AM 39.2 °F 34.2 °F 33.8 °F 81% 30.05 in 10.0 mi West 6.9 mph - N/A   Overcast
3:53 AM 39.0 °F 34.0 °F 34.0 °F 82% 30.05 in 10.0 mi West 6.9 mph - N/A   Mostly Cloudy
4:53 AM 39.0 °F 34.0 °F 34.0 °F 82% 30.05 in 10.0 mi West 6.9 mph - N/A   Overcast
5:53 AM 39.0 °F 34.0 °F 34.0 °F 82% 30.05 in 10.0 mi West 6.9 mph - N/A   Overcast
6:33 AM 37.4 °F 33.8 °F 32.0 °F 81% 30.05 in 10.0 mi WSW 4.6 mph - N/A   Partly Cloudy
6:53 AM 36.0 °F 32.1 °F 32.0 °F 86% 30.06 in 10.0 mi WSW 4.6 mph - N/A   Clear
8:53 AM 39.9 °F 33.4 °F 33.1 °F 77% 30.07 in 10.0 mi SW 10.4 mph - N/A   Clear
9:53 AM 41.0 °F 34.7 °F 33.1 °F 73% 30.05 in 10.0 mi SW 10.4 mph - N/A   Clear
10:53 AM 46.0 °F 40.6 °F 33.1 °F 61% 30.03 in 10.0 mi SSW 11.5 mph - N/A   Partly Cloudy
11:53 AM 48.0 °F - 30.9 °F 52% 30.00 in 10.0 mi SW 12.7 mph 21.9 mph N/A   Partly Cloudy
12:53 PM 46.9 °F - 30.0 °F 52% 29.97 in 10.0 mi WSW 17.3 mph 20.7 mph N/A   Scattered Clouds
1:53 PM 46.9 °F - 30.0 °F 52% 29.96 in 10.0 mi West 12.7 mph - 0.00 in   Overcast
2:53 PM 45.0 °F 39.7 °F 30.0 °F 56% 29.95 in 10.0 mi West 10.4 mph 24.2 mph N/A   Overcast
3:53 PM 44.1 °F 38.6 °F 26.1 °F 49% 29.96 in 10.0 mi West 10.4 mph 23.0 mph N/A   Overcast
4:53 PM 44.1 °F 37.7 °F 21.9 °F 42% 29.96 in 10.0 mi WNW 12.7 mph 21.9 mph N/A   Mostly Cloudy
5:53 PM 39.9 °F 35.1 °F 25.0 °F 55% 29.98 in 10.0 mi WNW 6.9 mph - N/A   Clear
6:53 PM 37.9 °F 33.5 °F 25.0 °F 60% 29.99 in 10.0 mi WNW 5.8 mph - N/A   Clear
7:53 PM 36.0 °F 30.3 °F 24.1 °F 62% 30.00 in 10.0 mi West 6.9 mph - N/A   Clear
8:53 PM 36.0 °F 28.0 °F 25.0 °F 64% 30.00 in 10.0 mi West 11.5 mph 19.6 mph 0.00 in Snow Light Snow
9:53 PM 33.1 °F 26.9 °F 25.0 °F 72% 30.01 in 10.0 mi West 6.9 mph - 0.00 in   Clear
10:53 PM 33.1 °F 24.9 °F 26.1 °F 75% 30.01 in 10.0 mi West 10.4 mph - N/A   Clear
11:53 PM 30.9 °F 24.3 °F 26.1 °F 82% 30.01 in 10.0 mi WSW 6.9 mph - N/A   Clear